www.pogodaiklimat.ru

АРХИВ ПОГОДЫ в Гаррисберге

Время (UTC), дата Ветер
(напр.,м/с)
 
Видим.   Явления Облачность Т
(С)
Тd
(С)
f
(%)
Тe
(С)
Тes
(С)
Комфортность

P
(гПа)

Po
(гПа)
Тmin
(С)
Tmax
(С)
R
(мм)
SD
(см)
22:56 20.08 В  16 км    8/2 1650 м
[средняя верхняя] 
+23.9  +21.1  84  +30  +30  очень
душно 
1016.6  1005.4  +21.7  +34.4  27.7   
23:56 20.08 ЮЗ  н/о    8/0 2550 м
[средняя верхняя] 
+25.6  +20.6  74  +32  +32  очень
душно 
1016.8  1005.4         
00:56 21.08 В  16 км    8/0 4200 м
[средняя] 
+23.9  +21.1  84  +30  +30  очень
душно 
1004.7  1005.1         
01:56 21.08 ЮВ  16 км    5/0 5100 м
[средняя верхняя] 
+23.9  +21.7  88  +31  +31  очень
душно 
1016.3  1005.1         
02:56 21.08 ЮВ  16 км    8/0 7500 м
[верхняя] 
+23.3  +20.6  85  +31  +31  очень
душно 
1016.3  1005.1         
03:56 21.08 Ю  16 км    8/0 7500 м
[верхняя] 
+23.9  +21.1  84  +30  +30  очень
душно 
1016.3  1005.1         
04:56 21.08 ЮВ  16 км    10/0 2700 м
[средняя верхняя] 
+23.3  +20.6  85  +31  +31  очень
душно 
1016.0  1004.7  +22.8  +25.6     
05:56 21.08   16 км    10/0 2700 м
[средняя верхняя] 
+23.9  +19.4  76  +29  +29  душно  1015.7  1004.4         
06:56 21.08 нст  16 км    10/5 1800 м
[средняя верхняя] 
+23.3  +20.0  82  +30  +30  очень
душно 
1015.0  1003.7         
07:56 21.08 Ю  16 км    10/0 2700 м
[средняя верхняя] 
+22.8  +20.0  84  +29  +29  очень
душно 
1013.9  1002.7         
08:56 21.08 нст  16 км    10/0 7500 м
[верхняя] 
+22.2  +20.0  87  +28  +28  душно  1013.9  1002.7         
09:05 21.08   16 км    10/0 7500 м
[верхняя] 
+22.2  +20.0  87  +28  +28  душно    1002.7         
09:16 21.08   0
{5} 
16 км    10/5 270 м
[верхняя] 
+22.2  +20.0  87  +28  +28  душно    1002.7         
09:56 21.08 Ю  16 км    10/0 3000 м
[средняя верхняя] 
+22.8  +20.0  84  +29  +29  очень
душно 
1014.3  1003.1         
10:56 21.08 Ю  16 км    8/0 3000 м
[средняя верхняя] 
+23.3  +20.6  85  +31  +31  очень
душно 
1014.3  1003.1  +22.2  +23.9     
11:56 21.08   16 км    8/0 3000 м
[средняя верхняя] 
+23.9  +20.6  82  +30  +31  очень
душно 
1014.5  1003.1         
12:56 21.08 ЮВ  16 км    8/5 360 м
[средняя] 
+25.6  +21.1  76  +32  +34  очень
душно 
1014.1  1002.7         
13:56 21.08 ЮВ  16 км    10/5 360 м
[средняя верхняя] 
+26.1  +20.6  72  +33  +35  очень
душно 
1014.2  1003.1         
14:56 21.08 ЮВ  16 км    5/2 1200 м
[средняя] 
+26.7  +21.1  71  +34  +40  очень
душно 
1013.4  1002.1         
15:56 21.08 ЮВ  16 км    5/5 1200 м  +29.0  +22.0  66  +37  +45  очень
душно 
1012.5  1001.4         
16:56 21.08 ЮВ  16 км    5/5 1200 м
[средняя] 
+31.0  +21.0  55  +38  +46  очень
душно 
1012.5  1001.1  +23.3  +31.1     
17:56 21.08 ЮЗ  16 км  слабый дождь  8/5 1350 м
[средняя] 
+28.3  +22.2  70  +37  +40  очень
душно 
1012.0  1000.7         
18:56 21.08 ЮЗ  16 км    8/5 1500 м
[средняя] 
+28.9  +21.1  63  +36  +38  очень
душно 
1011.1  999.7         
19:56 21.08 Ю  16 км    8/5 1500 м
[средняя] 
+29.4  +21.7  63  +37  +41  очень
душно 
1010.8  999.7         
20:56 21.08 З  16 км    10/10 1410 м  +28.9  +23.3  72  +39  +39  очень
душно 
1010.7  999.4         
21:56 21.08 Ю  16 км    8/5 1650 м
[средняя] 
+27.2  +21.7  72  +35  +36  очень
душно 
1010.8           
22:56 21.08 ЮВ  16 км    8/0 2100 м
[средняя] 
+25.6  +22.2  82  +33  +34  очень
душно 
1010.5  999.4  +25.6  +31.7     
23:56 21.08   16 км    5/0 3000 м
[средняя] 
+25.0  +22.8  88  +33  +33  очень
душно 
1011.4  1000.1         
00:56 22.08 СЗ  13 км    5/0 3300 м
[средняя] 
+25.0  +22.8  88  +33  +33  очень
душно 
1011.9  1000.7         
01:56 22.08 С  16 км    2/0 3300 м
[средняя] 
+25.0  +22.2  84  +32  +32  очень
душно 
1011.9  1000.7         
02:56 22.08   16 км    2/0 2700 м
[средняя] 
+24.4  +22.2  88  +32  +32  очень
душно 
1012.1  1001.1         
03:56 22.08   16 км    5/0 7500 м
[верхняя] 
+24.4  +21.7  85  +31  +31  очень
душно 
1012.2  1001.1         
04:56 22.08 В  16 км    5/0 7500 м
[верхняя] 
+23.9  +21.1  84  +30  +30  очень
душно 
1012.0  1000.7  +23.3  +25.6     
05:56 22.08   16 км    8/0 7500 м
[верхняя] 
+23.9  +20.6  82  +30  +30  очень
душно 
1011.5  1000.4         
06:56 22.08 СВ  16 км    10/0 7500 м
[верхняя] 
+22.8  +20.6  87  +30  +30  очень
душно 
1011.2  1000.1         
07:56 22.08   16 км    10/0 7500 м
[верхняя] 
+22.8  +20.0  84  +29  +29  очень
душно 
1011.7  1000.4         
08:56 22.08   16 км    10/0 7500 м
[верхняя] 
+22.8  +19.4  81  +29  +29  очень
душно 
1012.3  1001.1         
09:56 22.08   16 км    8/0 7500 м
[верхняя] 
+22.0  +19.4  85  +27  +27  душно  1013.2  1002.1         
10:56 22.08   16 км    ясно  +23.9  +20.6  82  +30  +30  очень
душно 
1013.2  1001.7  +22.2  +24.4     
11:56 22.08 ЮВ  16 км    5/0 3600 м
[средняя] 
+25.6  +20.6  74  +32  +33  очень
душно 
1013.1  1001.7         
12:56 22.08   16 км    8/0 6000 м
[средняя] 
+27.8  +20.6  65  +35  +38  очень
душно 
1013.1  1001.7         
13:56 22.08 З  16 км    8/5 990 м
[средняя] 
+29.4  +20.6  59  +36  +39  очень
душно 
1013.6  1002.4         
15:56 22.08 З  16 км    5/5 1470 м  +31.0  +20.0  52  +37  +44  очень
душно 
1012.8  1001.7         
16:56 22.08 З  16 км    8/8 1410 м  +31.7  +20.0  50  +38  +40  очень
душно 
1012.5  1001.1  +24.4  +32.2     
17:56 22.08 З  16 км    8/2 1500 м
[верхняя] 
+31.7  +18.9  47  +37  +46  очень
душно 
1011.7  1000.4         
18:56 22.08 ЮЗ  16 км    8/5 1650 м
[верхняя] 
+32.8  +20.0  47  +39  +44  очень
душно 
1010.8  999.7         
19:56 22.08 нст  16 км    8/2 1650 м
[средняя] 
+30.6  +21.1  57  +38  +42  очень
душно 
1010.6  999.4         
20:56 22.08 СЗ  16 км    8/2 1500 м
[средняя] 
+31.7  +20.0  50  +38  +40  очень
душно 
1010.7  999.4         

 

Местоположение метеостанции Harrisburg International Airport: широта 40.1936 долгота -76.7633 высота над уровнем моря 95 м.

В архиве по умолчанию представлена погода в Гаррисберге за последние 1-2 суток. Обновление информации о фактической погоде в базе происходит ежечасно! Архивные данные за месяц целиком и за предыдущие месяцы Вы можете получить, выбрав интересующий диапазон дат из раскрывающегося списка и нажав кнопку "Ввод!".

Внимание! Архив погоды МЕТАР в базе сайта в настоящее время начинается c 1 января 2011 г. Нет смысла пытаться выбрать более раннюю дату.

Внимание! Время в таблицах - всемирное. Для получения местного времени необходимо прибавить поправку, которая в Гаррисберге равна -5 ч.

Ветер - указаны скорость ветра в м/с и направление, откуда дует ветер: С - северный, СВ - северо-восточный, В - восточный, ЮВ - юго-восточный, Ю - южный, ЮЗ - юго-западный, З - западный, СЗ - северо-западный.
Видимость - горизонтальная дальность видимости в метрах или километрах. При видимости от 1 до 10 км при отсутствии осадков обычно наблюдается дымка, при ухудшении видимости до 1 км и менее - туман. В сухую погоду видимость может ухудшаться дымом, пылью или мглою.
Атмосферные явления - указаны явления, наблюдавшиеся в указанный момент времени.
Облачность - указаны через наклонную черту верхняя и нижняя облачность в баллах и высота нижней границы облаков в метрах. Внимание: облачность, как и прочие метеорологические величины в США измеряются автоматическими метеостанциями. Указанные значения в баллах носят условный характер и показывают процент времени, в течение которого, в среднем, лазерный луч высотомера отражался от облаков обратно.
T - Температура воздуха - температура, измеренная на высоте 2 м над землей.
Td - Температура точки росы - температура, при понижении до которой содержащийся в воздухе водяной пар достигнет насыщения.
f - Относительная влажность воздуха - влажноcть воздуха, измеренная на высоте 2 м над землей.
Te - Эффективная температура - температура, которую ощущает одетый по сезону человек в тени. Характеристика душности погоды. При расчете учитывается влияние влажности воздуха и скорости ветра на теплоощущения человека.
Tes - Эффективная температура на солнце - температура, которую ощущает человек, с поправкой на солнечный нагрев. Характеристика знойности погоды. Зависит от высоты солнца над горизонтом, облачности и скорости ветра. Ночью, в пасмурную погоду, а также при ветре 12 м/с и более поправка равна нулю.
P - Атмосферное давление - приведенное к уровню моря атмосферное давление.
Po - Атмосферное давление - измеренное на уровне метеостанции атмосферное давление.
Tmin - Минимальная температура - минимум температуры воздуха на высоте 2 м над землей.
Tmax - Максимальная температура - максимум температуры воздуха на высоте 2 м над землей.
R - Количество осадков - Количество выпавших осадков за 3 или 6 часов, мм.
SD - Снежный покров - Высота снежного покрова, см.